Miscellaneous Local Product
Issued by NWS North Platte, NE

Home | Current Version | Previous Version | Text Only | Print | Product List | Glossary On
Versions: 1 2 3 4 5 6 7 8 9 10 11 12 13 14 15 16 17 18 19 20 21 22 23 24 25 26 27 28 29 30 31 32 33 34 35 36 37 38 39 40 41 42 43 44 45 46 47 48 49 50
000
AXUS43 KLBF 251510
MISLBF


WESTERN AND NORTH CENTRAL NEBRASKA HOURLY WEATHER ROUNDUP
NATIONAL WEATHER SERVICE NORTH PLATTE NE
900 AM CST THU DEC 25 2014

***STATIONS NOT REPORTING VARIABLES SUCH AS SKY/WEATHER OR
PRESSURE ARE PROVIDED BY THE NEBRASKA DEPARTMENT OF
ROADS...RAWS...AND APRS NETWORKS...AND ARE NOT UNDER
NATIONAL WEATHER SERVICE QUALITY CONTROL***

...OBSERVATIONS IN AND NEAR THE EASTERN PANHANDLE OF NEBRASKA...

CITY           SKY/WX    TMP DP  RH WIND       PRES   REMARKS
PINE RIDGE     CLOUDY    30  27  88 N8        29.58R FOG     WCI  22
CHADRON        FOG       31  29  92 NE14      29.58R VSB 1   WCI  21
ALLIANCE       CLOUDY    28  25  88 N17       29.51R WCI  16
SIDNEY         MOCLDY    36  25  64 NE10      29.45R WCI  28
WHITECLAY        N/A     28  26  94 E8          N/A  WCI  19
CRESCENT LAKE    N/A     33  27  80 N9          N/A  WCI  25
LISCO            N/A     35  24  64 NW10        N/A  WCI  27
BIG SPRINGS      N/A     29  26  86 NE3         N/A
$$

...OBSERVATIONS IN NORTH CENTRAL NEBRASKA...

CITY           SKY/WX    TMP DP  RH WIND       PRES   REMARKS
VALENTINE      CLOUDY    29  23  78 NE13      29.56R WCI  19
THEDFORD       MOCLDY    30  26  84 N3        29.50R
AINSWORTH      MOCLDY    29  26  88 N8        29.53R WCI  21
O`NEILL        PTCLDY    26  25  96 N3        29.54S
ORD            CLEAR     26  22  84 CALM      29.53R
BROKEN BOW     PTCLDY    28  23  81 SE6       29.49R WCI  22
BROWNLEE         N/A     30  24  78 N17         N/A  WCI  18
BREWSTER         N/A     27  25  94 SE3         N/A
ROSE             N/A     33  30  86 MISG        N/A
COMSTOCK         N/A     32  27  80 CALM        N/A
$$

...OBSERVATIONS IN SOUTHWEST NEBRASKA AND FAR NORTHEAST COLORADO...

CITY           SKY/WX    TMP DP  RH WIND       PRES   REMARKS
WRAY           FAIR      26  24  91 W6        29.42R WCI  19
HOLYOKE        FAIR      28  23  80 E6        29.42R WCI  22
IMPERIAL       MOCLDY    25  20  81 N7        29.42F WCI  17
OGALLALA       MOCLDY    28  25  89 E3        29.45R
NORTH PLATTE   MOCLDY    27  22  81 E6        29.46R WCI  20
MCCOOK         PTCLDY    26  21  81 E8        29.42F WCI  18
LEXINGTON      PTCLDY    30  24  78 E6        29.48R WCI  24
PAXTON           N/A     27  25  91 CALM        N/A
GOTHENBURG       N/A     28  22  78 CALM        N/A
CALLAWAY         N/A     29  25  84 CALM        N/A
$$

...NORTH PLATTE AREA...

CITY           SKY/WX    TMP DP  RH WIND       PRES   REMARKS
AIRPORT        MOCLDY    27  22  81 E6        29.46R WCI  20
$$

...SOME WEATHER OBSERVATIONS FROM AROUND THE REGION...

CITY           SKY/WX    TMP DP  RH WIND       PRES   REMARKS
DENVER         PTCLDY    35  21  56 E7        29.40R WCI  29
LARAMIE        CLOUDY    32  20  61 W9        29.43R WCI  24
CHEYENNE       LGT SNOW  31  26  82 N9        29.46R WCI  23
SCOTTSBLUFF    MIX PCPN  32  26  78 N15G24    29.51R WCI  22
RAPID CITY     SNOW      30  28  92 N17       29.65R VSB 1/2 WCI  18
PIERRE         LGT SNOW  31  29  92 NE15      29.65R VSB 1   WCI  20
WINNER         CLOUDY    30  26  85 N15       29.58R WCI  19
SIOUX FALLS    MOCLDY    30  27  88 NE5       29.63R WCI  25
OMAHA          MOCLDY    33  27  78 S15       29.68R WCI  23
GRAND ISLAND   CLEAR     30  23  75 SE9       29.56R WCI  22
KANSAS CITY    PTSUNNY   37  28  70 S17       29.76F WCI  27
WICHITA        MOSUNNY   41  25  53 S20G32    29.66F
HAYS           PTCLDY    32  18  55 S15       29.49F WCI  22
LIBERAL        MOCLDY    36  21  55 S10       29.53R WCI  28
GOODLAND       PTCLDY    28  23  81 W6        29.40S WCI  22
$$



USA.gov is the U.S. government's official web portal to all federal, state and local government web resources and services.